QPF
0.00 0.00 0.00 0.00 0.00 0.00 0.00 0.00 0.00 0.00 0.00 0.00 0.00 0.00 0.00 0.00 0.00 0.00 0.00 0.00 0.00 0.00 0.00 0.00 0.00 0.00 0.00 0.00 0.00 0.00 0.00 0.00 0.00 0.00 0.00 0.00 0.00 0.00 0.00 0.00 0.00 0.00 0.00 0.00
0.00 0.00 0.00 0.00 0.00 0.00 0.00 0.00 0.00 0.00 0.00 0.00 0.00 0.00 0.00 0.00 0.00 0.00 0.00 0.00 0.00 0.00 0.00 0.00 0.00 0.00 0.00 0.00 0.00 0.00 0.00 0.00 0.00 0.00 0.00 0.00 0.00 0.00 0.00 0.00 0.00 0.00 0.00 0.00
0.00 0.00 0.00 0.00 0.00 0.00 0.00 0.00 0.00 0.00 0.00 0.00 0.00 0.00 0.00 0.00 0.00 0.00 0.00 0.00 0.00 0.00 0.00 0.00 0.00 0.00 0.00 0.00 0.00 0.00 0.00 0.00 0.00 0.00 0.00 0.00 0.00 0.00 0.00 0.00 0.00 0.00 0.00 0.00
0.00 0.00 0.00 0.00 0.00 0.00 0.00 0.00 0.00 0.00 0.00 0.00 0.00 0.00 0.00 0.00 0.00 0.00 0.00 0.00 0.00 0.00 0.00 0.00 0.00 0.00 0.00 0.00 0.00 0.00 0.00 0.00 0.00 0.00 0.00 0.00 0.00 0.00 0.00 0.00 0.00 0.00 0.00 0.00
0.00 0.00 0.00 0.00 0.00 0.00 0.00 0.00 0.00 0.00 0.00 0.00 0.00 0.00 0.00 0.00 0.00 0.00 0.00 0.00 0.00 0.00 0.00 0.00 0.00 0.00 0.00 0.00 0.00 0.00 0.00 0.00 0.00 0.00 0.00 0.00 0.00 0.00 0.00 0.00 0.00 0.00 0.00 0.00
0.00 0.00 0.00 0.00 0.00 0.00 0.00 0.00 0.00 0.00 0.00 0.00 0.00 0.00 0.00 0.00 0.00 0.00 0.00 0.00 0.00 0.00 0.00 0.00 0.00 0.00 0.00 0.00 0.00 0.00 0.00 0.00 0.00 0.00 0.00 0.00 0.00 0.00 0.00 0.00 0.00 0.00 0.00 0.00
0.00 0.00 0.00 0.00 0.00 0.00 0.00 0.00 0.00 0.00 0.00 0.00 0.00 0.00 0.00 0.00 0.00 0.00 0.00 0.00 0.00 0.00 0.00 0.00 0.00 0.00 0.00 0.00 0.00 0.00 0.00 0.00 0.00 0.00 0.00 0.00 0.00 0.00 0.00 0.00 0.00 0.00 0.00 0.00
0.00 0.00 0.00 0.00 0.00 0.00 0.00 0.00 0.00 0.00 0.00 0.00 0.00 0.00 0.00 0.00 0.00 0.00 0.00 0.00 0.00 0.00 0.00 0.00 0.00 0.00 0.00 0.00 0.00 0.00 0.00 0.00 0.00 0.00 0.00 0.00 0.00 0.00 0.00 0.00 0.00 0.00 0.00 0.00
0.00 0.00 0.00 0.00 0.00 0.00 0.00 0.00 0.00 0.00 0.00 0.00 0.00 0.00 0.00 0.00 0.00 0.00 0.00 0.00 0.00 0.00 0.00 0.00 0.00 0.00 0.00 0.00 0.00 0.00 0.00 0.00 0.00 0.00 0.00 0.00 0.00 0.00 0.00 0.00 0.00 0.00 0.00 0.00
0.00 0.00 0.00 0.00 0.00 0.00 0.00 0.00 0.00 0.00 0.00 0.00 0.00 0.00 0.00 0.00 0.00 0.00 0.00 0.00 0.00 0.00 0.00 0.00 0.00 0.00 0.00 0.00 0.00 0.00 0.00 0.00 0.00 0.00 0.00 0.00 0.00 0.00 0.00 0.00 0.00 0.00 0.00 0.00
0.00 0.00 0.00 0.00 0.00 0.00 0.00 0.00 0.00 0.00 0.00 0.00 0.00 0.00 0.00 0.00 0.00 0.00 0.00 0.00 0.00 0.00 0.00 0.00 0.00 0.00 0.00 0.00 0.00 0.00 0.00 0.00 0.00 0.00 0.00 0.00 0.00 0.00 0.00 0.00 0.00 0.00 0.00 0.00
0.00 0.00 0.00 0.00 0.00 0.00 0.00 0.00 0.00 0.00 0.00 0.00 0.00 0.00 0.00 0.00 0.00 0.00 0.00 0.00 0.00 0.00 0.00 0.00 0.00 0.00 0.00 0.00 0.00 0.00 0.00 0.00 0.00 0.00 0.00 0.00 0.00 0.00 0.00 0.00 0.00 0.00 0.00 0.00
0.00 0.00 0.00 0.00 0.00 0.00 0.00 0.00 0.00 0.00 0.00 0.00 0.00 0.00 0.00 0.00 0.00 0.00 0.00 0.00 0.00 0.00 0.00 0.00 0.00 0.00 0.00 0.00 0.00 0.00 0.00 0.00 0.00 0.00 0.00 0.00 0.00 0.00 0.00 0.00 0.00 0.00 0.00 0.00
0.00 0.00 0.00 0.00 0.00 0.00 0.00 0.00 0.00 0.00 0.00 0.00 0.00 0.00 0.00 0.00 0.00 0.00 0.00 0.00 0.00 0.00 0.00 0.00 0.00 0.00 0.00 0.00 0.00 0.00 0.00 0.00 0.00 0.00 0.00 0.00 0.00 0.00 0.00 0.00 0.00 0.00 0.00 0.00
0.00 0.00 0.00 0.00 0.00 0.00 0.00 0.00 0.00 0.00 0.00 0.00 0.00 0.00 0.00 0.00 0.00 0.00 0.00 0.00 0.00 0.00 0.00 0.00 0.00 0.00 0.00 0.00 0.00 0.00 0.00 0.00 0.00 0.00 0.00 0.00 0.00 0.00 0.00 0.00 0.00 0.00 0.00 0.00
0.00 0.00 0.00 0.00 0.00 0.00 0.00 0.00 0.00 0.00 0.00 0.00 0.00 0.00 0.00 0.00 0.00 0.00 0.00 0.00 0.00 0.00 0.00 0.00 0.01 0.01 0.01 0.00 0.00 0.01 0.01 0.01 0.01 0.01 0.01 0.00 0.00 0.00 0.00 0.00 0.00 0.00 0.00 0.00
0.00 0.00 0.01 0.00 0.00 0.00 0.00 0.00 0.00 0.00 0.00 0.00 0.00 0.00 0.00 0.00 0.00 0.00 0.00 0.00 0.00 0.00 0.00 0.00 0.01 0.01 0.01 0.01 0.01 0.01 0.01 0.01 0.01 0.01 0.01 0.01 0.01 0.00 0.00 0.00 0.00 0.00 0.00 0.00
0.01 0.01 0.00 0.00 0.00 0.00 0.00 0.00 0.00 0.00 0.00 0.00 0.01 0.01 0.01 0.01 0.01 0.00 0.00 0.00 0.00 0.00 0.00 0.01 0.01 0.01 0.01 0.01 0.02 0.02 0.02 0.02 0.01 0.01 0.01 0.01 0.01 0.00 0.00 0.01 0.01 0.01 0.01 0.00
0.00 0.00 0.00 0.00 0.00 0.00 0.00 0.00 0.00 0.00 0.00 0.00 0.00 0.00 0.00 0.00 0.00 0.00 0.00 0.00 0.00 0.00 0.00 0.01 0.01 0.01 0.01 0.01 0.02 0.03 0.02 0.02 0.02 0.02 0.02 0.02 0.02 0.01 0.01 0.01 0.01 0.01 0.01 0.01
0.00 0.00 0.00 0.00 0.00 0.00 0.00 0.00 0.00 0.00 0.00 0.00 0.00 0.00 0.00 0.00 0.00 0.00 0.00 0.00 0.00 0.01 0.01 0.01 0.01 0.01 0.01 0.01 0.02 0.03 0.02 0.02 0.03 0.03 0.03 0.04 0.03 0.02 0.01 0.01 0.01 0.01 0.01 0.01
0.00 0.00 0.00 0.00 0.00 0.00 0.00 0.00 0.00 0.00 0.00 0.00 0.00 0.00 0.00 0.00 0.00 0.00 0.00 0.00 0.01 0.01 0.01 0.01 0.02 0.02 0.02 0.02 0.02 0.02 0.03 0.03 0.03 0.04 0.04 0.04 0.03 0.03 0.02 0.01 0.01 0.01 0.01 0.01
0.00 0.00 0.00 0.00 0.00 0.00 0.00 0.00 0.00 0.00 0.00 0.00 0.00 0.00 0.00 0.00 0.00 0.00 0.00 0.00 0.00 0.01 0.01 0.01 0.01 0.02 0.02 0.02 0.02 0.02 0.03 0.04 0.04 0.04 0.04 0.04 0.03 0.03 0.03 0.03 0.02 0.02 0.02 0.01
0.00 0.00 0.00 0.00 0.00 0.00 0.00 0.00 0.00 0.00 0.00 0.00 0.00 0.00 0.00 0.01 0.01 0.00 0.00 0.00 0.00 0.01 0.00 0.00 0.01 0.01 0.01 0.02 0.02 0.02 0.02 0.03 0.04 0.04 0.04 0.04 0.05 0.04 0.04 0.04 0.03 0.03 0.03 0.03
0.01 0.01 0.01 0.01 0.01 0.01 0.01 0.01 0.00 0.00 0.00 0.00 0.00 0.00 0.00 0.00 0.00 0.00 0.00 0.00 0.00 0.01 0.00 0.01 0.01 0.01 0.01 0.02 0.02 0.02 0.02 0.03 0.04 0.04 0.04 0.05 0.05 0.06 0.05 0.05 0.05 0.04 0.03 0.03
0.01 0.02 0.02 0.02 0.02 0.01 0.01 0.01 0.01 0.00 0.00 0.00 0.00 0.00 0.00 0.00 0.00 0.00 0.00 0.00 0.00 0.01 0.01 0.01 0.01 0.02 0.02 0.02 0.03 0.03 0.02 0.03 0.03 0.04 0.05 0.06 0.06 0.06 0.06 0.05 0.05 0.05 0.04 0.04
0.01 0.01 0.01 0.01 0.01 0.01 0.01 0.00 0.00 0.00 0.00 0.00 0.00 0.00 0.00 0.00 0.00 0.00 0.01 0.00 0.01 0.01 0.01 0.01 0.01 0.01 0.01 0.02 0.02 0.03 0.03 0.03 0.04 0.04 0.05 0.06 0.07 0.07 0.07 0.07 0.06 0.06 0.05 0.05
0.00 0.00 0.00 0.01 0.01 0.01 0.01 0.01 0.01 0.00 0.01 0.01 0.01 0.00 0.00 0.00 0.01 0.01 0.01 0.01 0.01 0.01 0.01 0.01 0.01 0.02 0.02 0.02 0.02 0.03 0.05 0.05 0.05 0.06 0.06 0.06 0.07 0.07 0.07 0.07 0.06 0.06 0.05 0.04
MSLP
1014.57 1014.76 1014.94 1015.11 1015.22 1015.23 1015.11 1014.81 1014.34 1013.69 1012.91 1012.03 1011.13 1010.27 1009.49 1008.84 1008.33 1007.95 1007.67 1007.48 1007.31 1007.16 1007.01 1006.86 1006.72 1006.64 1006.63 1006.74 1006.96 1007.30 1007.73 1008.23 1008.75 1009.25 1009.71 1010.08 1010.37 1010.59 1010.76 1010.89 1011.01 1011.15 1011.31 1011.50
1014.87 1014.96 1015.00 1014.99 1014.91 1014.73 1014.45 1014.04 1013.52 1012.89 1012.20 1011.46 1010.74 1010.06 1009.46 1008.95 1008.53 1008.19 1007.90 1007.63 1007.37 1007.10 1006.82 1006.55 1006.32 1006.15 1006.08 1006.14 1006.33 1006.64 1007.06 1007.54 1008.06 1008.56 1009.02 1009.41 1009.73 1009.98 1010.17 1010.33 1010.47 1010.61 1010.76 1010.94
1015.15 1015.16 1015.11 1014.98 1014.76 1014.46 1014.07 1013.59 1013.05 1012.45 1011.83 1011.21 1010.62 1010.08 1009.60 1009.17 1008.80 1008.45 1008.12 1007.78 1007.42 1007.04 1006.65 1006.28 1005.96 1005.72 1005.59 1005.59 1005.72 1005.99 1006.36 1006.80 1007.28 1007.77 1008.22 1008.63 1008.97 1009.26 1009.50 1009.69 1009.87 1010.03 1010.20 1010.38
1015.41 1015.39 1015.27 1015.08 1014.80 1014.43 1013.99 1013.49 1012.94 1012.38 1011.81 1011.27 1010.76 1010.29 1009.87 1009.47 1009.10 1008.72 1008.33 1007.90 1007.45 1006.98 1006.50 1006.05 1005.66 1005.35 1005.15 1005.08 1005.15 1005.34 1005.63 1006.01 1006.43 1006.88 1007.31 1007.72 1008.10 1008.43 1008.72 1008.99 1009.22 1009.43 1009.63 1009.82
1015.67 1015.62 1015.49 1015.27 1014.97 1014.59 1014.14 1013.65 1013.13 1012.59 1012.07 1011.56 1011.09 1010.64 1010.22 1009.81 1009.39 1008.96 1008.50 1008.00 1007.47 1006.93 1006.39 1005.88 1005.42 1005.05 1004.79 1004.65 1004.63 1004.72 1004.92 1005.20 1005.54 1005.92 1006.32 1006.73 1007.12 1007.51 1007.87 1008.21 1008.52 1008.81 1009.06 1009.28
1015.89 1015.83 1015.70 1015.49 1015.21 1014.85 1014.43 1013.97 1013.48 1012.98 1012.47 1011.99 1011.51 1011.06 1010.60 1010.15 1009.68 1009.18 1008.65 1008.08 1007.50 1006.90 1006.32 1005.76 1005.27 1004.85 1004.52 1004.30 1004.18 1004.16 1004.24 1004.40 1004.64 1004.94 1005.29 1005.67 1006.09 1006.52 1006.95 1007.37 1007.77 1008.14 1008.46 1008.73
1016.06 1015.98 1015.85 1015.67 1015.42 1015.11 1014.74 1014.33 1013.88 1013.41 1012.93 1012.45 1011.96 1011.48 1010.98 1010.47 1009.94 1009.38 1008.79 1008.17 1007.55 1006.92 1006.31 1005.73 1005.20 1004.74 1004.35 1004.04 1003.82 1003.68 1003.63 1003.66 1003.78 1003.97 1004.25 1004.61 1005.02 1005.48 1005.98 1006.48 1006.97 1007.43 1007.82 1008.15
1016.13 1016.03 1015.91 1015.75 1015.55 1015.29 1014.98 1014.63 1014.23 1013.80 1013.34 1012.87 1012.37 1011.86 1011.32 1010.77 1010.18 1009.57 1008.94 1008.29 1007.64 1006.99 1006.37 1005.77 1005.22 1004.71 1004.26 1003.87 1003.55 1003.28 1003.10 1003.00 1002.99 1003.07 1003.27 1003.57 1003.97 1004.44 1004.98 1005.55 1006.11 1006.65 1007.13 1007.53
1016.10 1015.97 1015.85 1015.72 1015.55 1015.35 1015.11 1014.81 1014.47 1014.09 1013.67 1013.21 1012.72 1012.19 1011.63 1011.04 1010.42 1009.78 1009.11 1008.44 1007.78 1007.12 1006.49 1005.88 1005.31 1004.76 1004.26 1003.79 1003.36 1002.98 1002.67 1002.43 1002.29 1002.27 1002.37 1002.60 1002.96 1003.43 1003.98 1004.59 1005.22 1005.83 1006.38 1006.86
1015.96 1015.81 1015.69 1015.57 1015.45 1015.30 1015.11 1014.88 1014.60 1014.27 1013.89 1013.47 1012.99 1012.46 1011.90 1011.29 1010.66 1009.99 1009.31 1008.63 1007.96 1007.29 1006.65 1006.03 1005.43 1004.85 1004.29 1003.75 1003.23 1002.75 1002.32 1001.96 1001.70 1001.57 1001.57 1001.72 1002.02 1002.46 1003.01 1003.64 1004.30 1004.96 1005.58 1006.13
1015.74 1015.58 1015.46 1015.37 1015.28 1015.18 1015.05 1014.87 1014.65 1014.37 1014.04 1013.64 1013.19 1012.69 1012.13 1011.52 1010.88 1010.21 1009.52 1008.83 1008.14 1007.47 1006.81 1006.17 1005.54 1004.93 1004.32 1003.72 1003.13 1002.56 1002.03 1001.57 1001.21 1000.97 1000.87 1000.94 1001.17 1001.56 1002.08 1002.70 1003.39 1004.09 1004.76 1005.38
1015.49 1015.34 1015.24 1015.18 1015.12 1015.06 1014.97 1014.84 1014.66 1014.42 1014.12 1013.76 1013.34 1012.85 1012.30 1011.70 1011.06 1010.39 1009.69 1008.98 1008.28 1007.59 1006.91 1006.25 1005.59 1004.95 1004.30 1003.65 1003.00 1002.37 1001.77 1001.23 1000.78 1000.45 1000.26 1000.25 1000.40 1000.73 1001.21 1001.81 1002.49 1003.22 1003.94 1004.62
1015.27 1015.15 1015.08 1015.05 1015.03 1014.99 1014.93 1014.82 1014.67 1014.45 1014.17 1013.83 1013.42 1012.94 1012.40 1011.80 1011.16 1010.47 1009.77 1009.05 1008.32 1007.61 1006.91 1006.22 1005.55 1004.87 1004.19 1003.51 1002.83 1002.15 1001.50 1000.90 1000.38 999.97 999.71 999.61 999.69 999.95 1000.38 1000.95 1001.62 1002.36 1003.12 1003.86
1015.11 1015.04 1015.02 1015.02 1015.02 1015.00 1014.94 1014.84 1014.68 1014.46 1014.18 1013.83 1013.41 1012.93 1012.38 1011.78 1011.12 1010.43 1009.70 1008.97 1008.23 1007.49 1006.77 1006.06 1005.37 1004.67 1003.98 1003.27 1002.57 1001.87 1001.18 1000.54 999.96 999.49 999.16 998.99 999.00 999.20 999.57 1000.10 1000.76 1001.51 1002.30 1003.09
1015.03 1015.03 1015.05 1015.08 1015.09 1015.07 1014.99 1014.87 1014.68 1014.43 1014.11 1013.73 1013.29 1012.78 1012.21 1011.58 1010.91 1010.20 1009.46 1008.71 1007.96 1007.21 1006.48 1005.76 1005.05 1004.35 1003.65 1002.94 1002.22 1001.50 1000.79 1000.11 999.50 998.97 998.58 998.34 998.28 998.41 998.73 999.23 999.87 1000.63 1001.45 1002.30
1015.00 1015.06 1015.12 1015.17 1015.18 1015.14 1015.03 1014.86 1014.62 1014.31 1013.94 1013.51 1013.01 1012.46 1011.86 1011.21 1010.51 1009.79 1009.04 1008.28 1007.52 1006.78 1006.04 1005.33 1004.62 1003.92 1003.22 1002.51 1001.79 1001.06 1000.33 999.62 998.97 998.39 997.93 997.63 997.50 997.57 997.84 998.30 998.92 999.68 1000.54 1001.44
1014.98 1015.08 1015.17 1015.22 1015.22 1015.14 1014.98 1014.75 1014.44 1014.06 1013.62 1013.12 1012.56 1011.96 1011.32 1010.64 1009.93 1009.20 1008.45 1007.69 1006.95 1006.21 1005.50 1004.80 1004.11 1003.42 1002.73 1002.03 1001.30 1000.56 999.81 999.07 998.37 997.74 997.22 996.84 996.65 996.65 996.87 997.28 997.89 998.66 999.55 1000.50
1014.90 1015.02 1015.11 1015.15 1015.12 1015.00 1014.78 1014.48 1014.10 1013.65 1013.13 1012.56 1011.95 1011.30 1010.62 1009.92 1009.19 1008.46 1007.72 1006.99 1006.27 1005.57 1004.88 1004.21 1003.55 1002.89 1002.22 1001.52 1000.79 1000.04 999.26 998.48 997.73 997.04 996.45 996.01 995.74 995.68 995.84 996.22 996.80 997.57 998.48 999.48
1014.69 1014.81 1014.89 1014.91 1014.84 1014.67 1014.40 1014.03 1013.59 1013.07 1012.49 1011.86 1011.20 1010.51 1009.80 1009.08 1008.36 1007.64 1006.92 1006.22 1005.54 1004.88 1004.24 1003.62 1002.99 1002.36 1001.71 1001.03 1000.30 999.54 998.74 997.92 997.12 996.37 995.71 995.20 994.86 994.73 994.83 995.16 995.72 996.47 997.40 998.44
1014.33 1014.43 1014.49 1014.47 1014.35 1014.14 1013.82 1013.41 1012.91 1012.35 1011.72 1011.06 1010.36 1009.65 1008.92 1008.20 1007.49 1006.79 1006.11 1005.45 1004.81 1004.21 1003.62 1003.04 1002.47 1001.88 1001.26 1000.59 999.88 999.11 998.29 997.44 996.60 995.80 995.09 994.51 994.10 993.91 993.95 994.23 994.75 995.49 996.42 997.48
1013.82 1013.89 1013.91 1013.85 1013.70 1013.45 1013.10 1012.66 1012.13 1011.54 1010.89 1010.21 1009.50 1008.78 1008.05 1007.34 1006.64 1005.97 1005.32 1004.70 1004.12 1003.57 1003.03 1002.52 1001.99 1001.45 1000.87 1000.24 999.55 998.78 997.97 997.11 996.25 995.43 994.67 994.05 993.59 993.34 993.33 993.56 994.04 994.75 995.66 996.72
1013.20 1013.23 1013.21 1013.12 1012.94 1012.66 1012.30 1011.84 1011.31 1010.71 1010.06 1009.37 1008.67 1007.95 1007.24 1006.54 1005.86 1005.21 1004.60 1004.02 1003.48 1002.98 1002.51 1002.04 1001.58 1001.09 1000.57 999.98 999.33 998.61 997.82 996.99 996.14 995.32 994.56 993.92 993.43 993.15 993.10 993.29 993.72 994.38 995.26 996.30
1012.53 1012.51 1012.45 1012.32 1012.12 1011.83 1011.46 1011.01 1010.49 1009.90 1009.27 1008.60 1007.91 1007.21 1006.52 1005.83 1005.18 1004.55 1003.96 1003.42 1002.92 1002.46 1002.03 1001.62 1001.22 1000.80 1000.34 999.82 999.24 998.58 997.86 997.09 996.30 995.52 994.79 994.17 993.70 993.41 993.33 993.48 993.87 994.48 995.31 996.29
1011.83 1011.78 1011.68 1011.53 1011.31 1011.01 1010.65 1010.21 1009.71 1009.15 1008.55 1007.91 1007.25 1006.57 1005.90 1005.23 1004.59 1003.98 1003.41 1002.89 1002.42 1001.99 1001.61 1001.25 1000.91 1000.56 1000.18 999.75 999.26 998.70 998.08 997.41 996.72 996.02 995.37 994.81 994.38 994.11 994.03 994.16 994.51 995.07 995.82 996.74
1011.15 1011.06 1010.93 1010.75 1010.52 1010.22 1009.87 1009.45 1008.98 1008.46 1007.90 1007.29 1006.66 1006.02 1005.36 1004.72 1004.09 1003.49 1002.93 1002.43 1001.97 1001.58 1001.23 1000.93 1000.64 1000.37 1000.07 999.75 999.37 998.94 998.45 997.91 997.34 996.77 996.23 995.77 995.40 995.18 995.12 995.25 995.57 996.07 996.75 997.58
1010.47 1010.35 1010.19 1009.99 1009.74 1009.45 1009.11 1008.72 1008.29 1007.81 1007.28 1006.73 1006.14 1005.52 1004.90 1004.27 1003.66 1003.07 1002.52 1002.03 1001.59 1001.22 1000.90 1000.64 1000.42 1000.21 1000.01 999.79 999.54 999.24 998.89 998.51 998.09 997.67 997.27 996.91 996.65 996.49 996.48 996.61 996.91 997.37 997.97 998.71
1009.76 1009.60 1009.41 1009.19 1008.94 1008.66 1008.34 1007.98 1007.59 1007.15 1006.68 1006.17 1005.63 1005.05 1004.46 1003.86 1003.27 1002.69 1002.16 1001.67 1001.25 1000.90 1000.61 1000.39 1000.22 1000.08 999.96 999.85 999.71 999.55 999.35 999.11 998.85 998.58 998.32 998.10 997.94 997.86 997.90 998.05 998.34 998.75 999.29 999.94
Thickness
5717 5722 5724 5723 5722 5723 5715 5706 5695 5704 5707 5716 5725 5729 5732 5736 5738 5739 5740 5740 5740 5740 5740 5740 5740 5740 5740 5738 5735 5732 5727 5724 5721 5719 5716 5713 5709 5706 5704 5701 5698 5695 5692 5689
5711 5720 5719 5717 5722 5721 5719 5716 5710 5709 5709 5722 5726 5727 5728 5730 5732 5731 5733 5735 5737 5738 5738 5737 5737 5738 5738 5737 5735 5731 5727 5724 5722 5718 5714 5711 5708 5705 5702 5699 5697 5694 5691 5689
5693 5704 5709 5701 5716 5718 5714 5714 5712 5701 5706 5717 5718 5720 5721 5723 5724 5725 5727 5730 5732 5734 5735 5736 5737 5738 5736 5736 5734 5730 5727 5724 5720 5717 5713 5710 5708 5704 5700 5698 5695 5693 5690 5688
5685 5694 5686 5703 5722 5721 5712 5709 5711 5709 5709 5712 5714 5716 5718 5719 5718 5719 5723 5725 5728 5730 5732 5735 5736 5737 5736 5734 5731 5728 5725 5722 5719 5715 5712 5709 5705 5702 5699 5697 5694 5691 5689 5687
5676 5677 5685 5702 5715 5715 5706 5695 5702 5701 5704 5707 5710 5710 5708 5714 5715 5715 5718 5721 5723 5727 5729 5730 5731 5732 5731 5728 5726 5723 5722 5720 5718 5714 5710 5706 5703 5701 5698 5695 5692 5690 5688 5686
5672 5674 5671 5690 5711 5718 5706 5682 5693 5695 5694 5696 5697 5682 5687 5703 5706 5709 5712 5714 5717 5720 5723 5723 5724 5724 5723 5721 5719 5719 5720 5719 5717 5714 5709 5706 5703 5700 5697 5694 5691 5689 5686 5684
5667 5665 5672 5692 5703 5704 5677 5670 5684 5686 5685 5684 5679 5676 5683 5692 5696 5698 5701 5704 5708 5710 5711 5713 5715 5715 5714 5714 5715 5719 5719 5717 5714 5712 5709 5706 5702 5698 5695 5692 5688 5685 5683 5681
5660 5656 5663 5688 5689 5677 5671 5676 5676 5675 5675 5674 5674 5676 5679 5681 5683 5686 5688 5692 5695 5696 5699 5702 5704 5704 5704 5706 5711 5713 5712 5711 5710 5708 5706 5703 5698 5694 5691 5688 5683 5680 5678 5676
5663 5663 5672 5678 5676 5675 5672 5667 5666 5664 5665 5665 5664 5664 5666 5667 5669 5671 5673 5676 5680 5681 5685 5689 5691 5692 5693 5699 5702 5702 5703 5703 5704 5703 5701 5699 5695 5690 5686 5683 5680 5677 5674 5672
5658 5662 5664 5665 5665 5664 5662 5658 5657 5656 5654 5653 5651 5651 5652 5652 5654 5655 5658 5660 5663 5666 5669 5673 5678 5680 5683 5688 5691 5692 5693 5695 5696 5695 5693 5692 5690 5687 5683 5680 5676 5674 5671 5669
5646 5650 5651 5653 5652 5651 5651 5649 5646 5645 5643 5642 5640 5639 5638 5637 5638 5639 5641 5643 5646 5647 5651 5657 5663 5667 5671 5675 5678 5679 5682 5684 5685 5686 5686 5684 5683 5682 5681 5681 5679 5675 5671 5668
5637 5642 5636 5638 5641 5642 5639 5637 5635 5632 5630 5629 5626 5624 5623 5622 5622 5622 5623 5625 5627 5630 5634 5640 5646 5651 5656 5660 5663 5666 5668 5671 5674 5675 5675 5675 5673 5669 5671 5673 5673 5673 5671 5667
5637 5638 5633 5633 5631 5630 5627 5625 5623 5620 5616 5613 5612 5609 5607 5606 5605 5605 5605 5606 5608 5612 5616 5621 5627 5633 5639 5643 5647 5651 5655 5659 5662 5664 5665 5665 5664 5663 5659 5658 5660 5662 5662 5660
5631 5626 5621 5619 5616 5615 5613 5611 5607 5604 5601 5598 5595 5593 5590 5588 5587 5587 5587 5588 5591 5593 5598 5602 5608 5614 5620 5624 5630 5635 5641 5646 5650 5653 5655 5657 5658 5658 5657 5654 5649 5647 5649 5650
5618 5614 5609 5607 5603 5600 5597 5593 5588 5584 5582 5580 5578 5575 5573 5570 5569 5569 5569 5571 5573 5576 5580 5584 5590 5596 5602 5606 5612 5618 5624 5630 5636 5641 5644 5647 5649 5649 5649 5648 5646 5642 5637 5637
5603 5600 5596 5591 5588 5584 5580 5575 5570 5567 5565 5563 5560 5558 5556 5554 5553 5552 5553 5553 5555 5558 5563 5568 5573 5579 5585 5590 5595 5602 5609 5616 5622 5626 5631 5634 5637 5639 5639 5639 5638 5635 5634 5632
5584 5580 5577 5573 5570 5567 5563 5559 5554 5551 5548 5546 5544 5542 5540 5538 5536 5536 5537 5537 5539 5542 5546 5551 5557 5563 5569 5574 5579 5586 5593 5601 5607 5613 5619 5624 5628 5631 5632 5632 5632 5631 5630 5628
5571 5567 5562 5557 5552 5549 5546 5543 5539 5536 5532 5530 5529 5527 5524 5522 5520 5521 5522 5523 5524 5528 5531 5535 5541 5547 5553 5558 5563 5570 5577 5584 5591 5598 5606 5612 5618 5623 5624 5625 5626 5624 5621 5618
5557 5553 5548 5544 5539 5535 5531 5528 5525 5521 5518 5516 5514 5512 5510 5509 5508 5508 5508 5508 5509 5511 5518 5521 5528 5532 5537 5542 5549 5555 5562 5569 5577 5584 5592 5600 5606 5612 5615 5617 5618 5616 5613 5610
5542 5538 5534 5530 5527 5522 5518 5515 5511 5509 5506 5503 5501 5499 5497 5497 5496 5495 5495 5495 5496 5498 5504 5508 5512 5517 5522 5527 5534 5540 5547 5554 5561 5570 5577 5586 5594 5600 5605 5607 5608 5608 5606 5604
5526 5523 5520 5516 5513 5510 5506 5502 5498 5496 5494 5491 5488 5486 5485 5485 5485 5483 5482 5484 5489 5489 5492 5497 5500 5503 5508 5514 5521 5526 5532 5540 5547 5555 5563 5572 5581 5588 5593 5596 5598 5598 5598 5597
5511 5508 5505 5502 5499 5496 5493 5489 5485 5483 5481 5479 5478 5476 5474 5473 5473 5472 5472 5474 5478 5481 5483 5486 5488 5493 5498 5504 5508 5513 5520 5527 5534 5541 5549 5558 5567 5575 5580 5584 5587 5588 5588 5587
5495 5493 5490 5488 5485 5482 5480 5476 5474 5472 5470 5469 5467 5465 5463 5462 5461 5460 5464 5468 5469 5472 5474 5476 5480 5485 5490 5493 5497 5503 5510 5517 5523 5530 5537 5545 5553 5561 5567 5570 5574 5576 5576 5575
5483 5480 5478 5476 5472 5468 5466 5466 5463 5462 5460 5459 5458 5456 5454 5453 5454 5455 5456 5460 5462 5464 5466 5468 5472 5477 5481 5483 5488 5494 5500 5506 5512 5518 5525 5532 5540 5546 5552 5556 5559 5561 5562 5562
5472 5469 5465 5462 5459 5457 5456 5455 5453 5451 5449 5449 5449 5449 5448 5447 5446 5449 5450 5451 5454 5457 5458 5461 5466 5469 5471 5474 5479 5485 5490 5496 5502 5508 5514 5520 5527 5533 5538 5542 5545 5547 5548 5549
5460 5457 5456 5453 5451 5449 5446 5444 5443 5442 5440 5441 5442 5442 5442 5442 5441 5441 5442 5444 5446 5449 5451 5453 5455 5459 5462 5466 5471 5477 5483 5488 5493 5498 5504 5509 5515 5520 5524 5528 5532 5533 5534 5535
5450 5448 5445 5443 5442 5440 5438 5436 5435 5435 5434 5433 5434 5436 5436 5436 5436 5436 5437 5439 5441 5442 5444 5446 5448 5451 5455 5459 5463 5469 5475 5480 5485 5489 5494 5498 5503 5508 5512 5515 5517 5519 5520 5520